Voltar ao catálogo

STARLINK-32256

AtivoComunicaçõesVLEO
NORAD 60362·PAYLOAD·🇺🇸 United States

Lançado Aug 4, 2024 de Vandenberg Space Force Base

Loading…

Próximas Passagens (próximas 24 horas)

TLE

AtualizadoSource: CelesTrak SupGP

Época: Sep 14, 2026, 14:07 UTC

1 60362C 24138H   26257.58868056  .00070862  00000+0  20935-2 0  2573
2 60362  53.1571 151.1382 0001139 102.6993 255.0407 15.34357390    10

Acompanhe STARLINK-32256 em tempo real com AllMySat

Download on the App Store